Wind_Speed
5 7 9 9 9 9 8 8 7 6 6 6 5 5 5 5 4 4 4 5 4 4 4 4 5 5 7 7 8 9 9 9 10 8 6 13 12 13 13 15 15 16 17 17 16
4 6 7 8 8 8 7 6 6 6 6 6 5 4 5 5 5 4 4 5 5 5 5 4 5 5 7 8 10 10 10 8 13 12 12 16 13 15 14 14 15 15 17 18 17
3 4 5 6 6 6 6 6 6 6 5 4 3 3 4 4 5 6 5 5 5 5 5 5 5 6 7 10 11 14 15 13 16 16 15 16 15 17 14 14 13 14 16 15 15
5 3 4 5 5 5 6 5 6 5 3 2 2 2 4 5 4 4 6 6 6 6 6 6 7 8 9 11 13 16 15 16 16 16 16 16 16 16 16 10 17 15 15 12 14
5 3 2 3 4 5 5 6 6 5 3 3 4 4 5 6 9 10 9 9 8 8 8 8 9 9 11 11 15 17 17 18 18 17 17 17 16 20 15 14 18 15 14 14 14
5 3 1 2 3 5 6 7 7 6 4 4 6 7 7 9 10 10 9 10 10 11 10 10 11 12 15 16 16 19 18 19 20 17 20 20 19 22 12 15 17 18 16 16 15
6 4 3 3 5 6 7 7 7 7 7 7 8 9 10 11 12 11 11 12 12 12 12 12 12 13 15 15 16 17 20 19 20 20 23 21 24 23 14 15 16 18 19 20 18
6 6 5 4 5 5 6 7 8 8 8 9 10 12 14 13 14 14 14 14 14 14 14 15 15 17 18 19 20 21 21 17 15 16 20 19 26 14 18 20 18 17 21 24 24
7 6 6 6 5 6 7 8 9 10 10 11 12 14 17 14 15 16 16 16 16 15 15 17 18 19 20 19 15 15 17 16 16 18 19 21 28 16 19 17 19 22 27 30 31
10 9 8 8 8 8 8 9 10 12 12 13 15 15 15 15 15 15 15 17 18 17 18 19 20 22 24 18 17 15 19 15 16 18 20 25 33 29 28 29 28 28 29 31 31
11 12 11 11 11 11 11 12 13 15 13 13 16 19 21 21 21 19 17 17 19 20 20 22 23 29 20 21 22 22 21 22 22 22 30 32 35 35 32 32 33 31 31 33 32
12 13 14 14 13 13 14 14 15 18 24 18 21 24 25 25 26 25 22 21 23 24 23 26 30 26 21 26 26 26 25 27 23 22 29 30 34 40 38 37 37 31 31 33 30
15 14 15 15 14 14 15 16 17 20 26 31 24 26 29 29 29 31 26 26 27 26 27 26 20 20 17 18 22 26 25 24 22 22 32 31 38 30 21 19 17 20 27 30 28
18 17 17 17 17 16 16 16 17 18 19 19 20 19 20 22 26 26 25 28 28 25 22 22 24 31 29 30 23 24 20 23 24 18 20 12 20 26 27 29 26 21 25 21 21
23 21 20 20 19 19 18 17 16 15 6 9 11 13 13 12 12 11 13 20 25 21 22 17 17 16 19 19 18 19 20 22 24 21 22 22 17 18 11 21 22 26 19 15 14
25 25 25 24 22 21 20 19 16 7 8 8 11 11 12 13 16 17 14 16 19 24 28 29 28 27 23 25 24 28 26 23 22 13 13 25 26 24 16 17 12 20 21 18 17
26 26 26 25 25 23 21 17 8 10 6 8 13 13 14 15 16 16 19 22 20 14 19 24 30 31 31 30 32 31 15 6 9 6 9 11 15 32 11 16 14 15 20 21 23
27 26 25 25 24 22 19 14 12 8 13 16 15 18 20 16 21 22 25 27 28 25 19 17 17 25 26 29 18 20 23 12 10 11 14 7 11 12 14 13 19 24 24 25 31
26 24 24 22 21 19 16 14 13 10 16 21 24 26 21 21 20 19 26 27 20 24 20 17 27 20 24 24 21 15 20 22 25 34 26 28 35 34 33 30 28 27 29 27 29
24 22 22 21 20 17 16 20 17 17 20 23 18 16 20 16 13 10 11 12 11 20 16 21 24 25 26 25 28 27 16 10 12 8 17 20 26 26 23 28 23 21 25 23 24
20 18 16 17 16 17 15 14 17 20 25 25 23 29 29 29 27 28 26 18 22 20 18 19 18 32 26 25 24 26 29 22 20 27 15 17 18 26 23 19 13 14 15 19 24
20 17 15 13 14 9 12 18 21 19 17 17 23 23 25 26 31 33 33 28 24 21 21 19 20 33 35 30 27 26 30 29 30 23 29 33 37 37 32 29 28 30 27 25 31
23 17 17 17 6 12 19 19 22 25 26 27 23 20 24 24 20 20 19 25 27 25 14 14 15 24 27 27 34 32 32 33 36 38 37 25 41 36 26 28 24 21 28 33 36
25 17 18 12 11 16 20 22 25 27 29 27 25 26 31 32 28 16 15 23 32 31 28 23 26 25 23 23 26 15 16 22 24 25 38 42 46 35 40 43 38 27 31 37 39
25 19 19 13 17 19 18 20 20 17 28 29 29 23 22 31 28 33 25 27 30 31 27 23 18 18 23 29 32 34 37 38 34 38 29 31 23 23 32 41 49 50 40 41 36
22 21 21 20 19 19 20 16 24 25 23 23 19 20 24 22 20 29 32 32 28 32 29 21 27 27 42 41 26 29 23 27 26 26 27 25 7 19 22 23 27 29 25 32 39
22 19 19 18 20 20 15 23 24 26 26 12 18 28 25 20 24 25 25 28 31 32 28 26 18 19 30 29 24 21 15 12 6 8 13 16 17 18 15 21 21 19 17 19 22
Wind_Direction
200 210 215 216 218 220 225 236 244 255 266 277 287 291 283 280 281 278 279 268 260 235 216 209 210 220 227 232 238 244 249 264 273 274 280 278 275 269 264 256 267 267 260 267 270
192 207 209 208 210 214 221 234 245 257 265 270 276 270 271 279 280 277 273 267 251 234 219 218 222 228 244 253 251 248 252 272 250 261 271 276 273 273 273 269 273 270 266 263 263
137 175 189 193 203 209 221 232 246 252 254 260 259 260 262 270 272 269 270 263 252 241 235 235 241 245 254 261 265 262 261 257 273 272 273 273 269 267 272 272 282 275 272 267 269
89 123 163 183 197 209 225 235 241 242 237 244 251 255 254 256 257 257 272 262 256 249 246 246 248 256 265 270 271 268 276 275 281 273 271 270 269 270 267 278 267 261 262 269 270
70 94 149 194 215 224 231 230 235 244 249 262 266 267 266 265 258 262 262 251 251 250 249 250 253 256 262 269 270 274 274 282 277 278 275 270 273 270 268 265 263 256 256 266 267
42 32 347 268 249 244 243 248 249 255 266 280 281 278 272 270 259 254 253 250 247 247 249 251 253 255 260 265 268 269 277 281 278 279 275 271 270 270 275 269 266 254 253 263 273
23 14 341 297 271 260 259 260 265 273 278 280 282 279 271 266 264 257 253 252 248 249 251 254 256 255 262 274 271 276 280 281 278 278 275 273 268 272 273 274 263 263 258 261 268
5 358 347 327 300 283 278 280 282 283 283 282 281 280 277 270 268 262 255 251 249 250 252 255 257 258 260 267 274 278 282 283 273 286 274 264 267 282 273 279 269 259 266 270 264
338 338 336 330 314 297 293 294 293 289 286 283 280 283 283 274 269 259 257 252 252 253 255 255 256 257 260 264 273 269 267 264 275 284 270 267 277 267 279 273 270 265 273 272 267
323 319 316 314 312 306 302 298 295 289 286 282 280 277 276 275 271 262 257 253 250 254 257 256 256 257 259 244 247 277 260 272 267 277 271 275 281 279 277 280 276 272 272 272 267
316 312 309 305 304 304 304 302 299 292 284 282 273 273 271 273 273 268 263 251 249 253 261 264 256 257 261 260 258 266 266 270 273 274 275 281 283 284 283 276 281 277 271 266 267
314 313 309 306 303 302 301 302 302 297 291 280 276 273 271 268 267 262 257 255 257 264 266 257 261 270 263 251 254 261 267 270 281 265 278 287 281 285 286 284 278 270 264 264 259
309 309 308 307 306 306 303 302 302 302 302 293 282 271 263 261 260 261 256 257 262 261 253 258 258 264 260 266 258 264 259 266 272 279 284 293 287 295 294 275 277 271 257 257 262
302 303 302 302 301 301 301 301 305 311 306 287 280 269 264 256 257 260 253 250 252 255 254 263 263 257 262 259 260 264 263 267 273 272 278 273 291 279 274 274 281 268 268 252 253
299 298 297 296 296 297 297 298 303 314 295 275 269 268 266 252 256 268 259 249 246 256 247 245 261 255 256 261 259 256 263 266 275 267 279 264 269 286 273 270 267 258 250 254 253
297 297 297 294 292 292 292 293 298 294 247 267 269 271 268 265 260 260 262 254 255 252 255 251 255 260 266 265 267 265 271 273 275 263 260 259 242 281 277 260 238 253 238 255 257
298 297 296 294 292 290 289 289 290 233 283 269 270 272 267 266 267 266 266 261 254 247 254 272 263 267 262 265 267 260 243 262 233 207 253 264 246 242 251 261 247 256 239 237 253
300 299 297 294 290 288 284 276 243 253 243 262 274 277 273 270 278 271 260 258 259 243 260 263 265 261 263 260 253 261 220 215 248 245 271 250 237 262 275 253 265 259 256 255 257
307 303 297 293 293 286 277 237 255 266 249 262 274 279 270 277 268 266 265 257 253 248 237 267 262 262 264 260 243 237 217 238 262 269 276 262 267 276 269 267 270 262 259 262 262
305 297 294 290 284 277 259 250 254 258 262 267 272 264 268 260 269 267 261 276 260 251 258 258 273 259 262 260 243 225 236 238 220 260 251 261 264 264 280 281 271 266 265 258 258
340 332 302 282 272 265 255 258 273 265 275 274 270 266 266 267 265 259 257 262 277 272 252 260 255 261 269 254 244 244 239 236 251 248 263 269 265 271 275 279 272 280 263 259 265
355 354 343 318 282 269 269 266 267 274 266 271 274 270 271 271 267 262 261 255 276 267 271 257 270 267 259 266 266 246 248 242 240 256 252 257 262 266 278 291 291 292 280 274 289
357 354 350 339 278 259 262 271 273 273 274 273 273 274 258 257 266 255 259 252 254 257 250 249 248 261 273 262 251 250 249 248 254 262 264 268 265 271 282 277 269 282 282 282 285
351 353 342 339 320 303 294 290 280 275 276 272 266 262 288 285 280 272 270 256 251 250 252 255 254 245 256 262 288 282 258 262 268 265 258 254 266 274 267 267 263 267 277 284 282
350 344 337 319 311 309 298 299 295 294 278 283 283 296 302 296 291 288 283 282 276 281 271 278 285 279 269 268 278 284 286 285 274 265 256 272 276 276 273 270 268 271 274 271 266
347 343 335 327 323 313 304 288 294 286 291 296 292 282 291 292 283 291 292 295 292 292 301 293 289 292 287 290 295 290 282 267 272 268 278 279 265 310 312 309 291 291 277 274 265
354 352 343 335 329 320 293 297 294 293 295 267 287 294 291 288 285 290 293 297 294 283 280 279 284 296 282 292 298 278 316 0 40 357 0 351 326 330 325 333 339 338 318 297 283
Height
3100 3101 3103 3104 3104 3105 3106 3107 3107 3107 3107 3107 3106 3106 3107 3107 3107 3107 3107 3107 3107 3107 3107 3107 3108 3109 3110 3110 3111 3111 3112 3112 3113 3112 3111 3107 3107 3106 3106 3106 3105 3104 3104 3104 3103
3100 3101 3102 3103 3103 3104 3105 3105 3106 3106 3106 3106 3105 3106 3106 3106 3106 3106 3107 3106 3106 3107 3107 3107 3108 3109 3109 3109 3109 3110 3110 3111 3109 3108 3107 3105 3105 3104 3104 3103 3103 3102 3101 3101 3101
3101 3101 3102 3102 3103 3103 3104 3105 3105 3105 3105 3104 3104 3105 3106 3105 3106 3105 3105 3105 3106 3106 3106 3107 3108 3108 3108 3108 3108 3107 3107 3108 3106 3105 3104 3103 3103 3102 3102 3101 3101 3100 3098 3098 3098
3103 3103 3103 3103 3103 3104 3104 3104 3104 3104 3104 3103 3103 3104 3104 3104 3107 3104 3105 3105 3105 3105 3106 3106 3106 3107 3107 3107 3106 3105 3105 3104 3103 3102 3101 3101 3100 3099 3098 3100 3097 3098 3097 3096 3096
3104 3104 3104 3104 3104 3104 3104 3104 3104 3104 3103 3103 3103 3103 3103 3104 3104 3103 3104 3104 3104 3104 3104 3105 3105 3105 3105 3105 3104 3103 3103 3102 3100 3099 3099 3098 3097 3095 3095 3096 3095 3095 3095 3094 3094
3105 3105 3104 3104 3104 3104 3103 3103 3103 3102 3101 3101 3101 3101 3102 3102 3102 3102 3102 3102 3102 3103 3103 3103 3104 3104 3103 3103 3103 3100 3100 3099 3097 3097 3095 3094 3094 3092 3094 3092 3092 3091 3092 3091 3091
3106 3105 3105 3104 3103 3103 3102 3102 3101 3100 3100 3100 3100 3099 3099 3101 3099 3099 3099 3100 3100 3100 3100 3101 3101 3102 3101 3101 3099 3098 3096 3095 3093 3093 3091 3091 3089 3087 3089 3088 3088 3088 3088 3088 3087
3107 3106 3105 3103 3103 3102 3101 3100 3099 3098 3098 3097 3097 3097 3096 3097 3096 3096 3096 3096 3096 3096 3097 3098 3098 3098 3098 3097 3096 3096 3094 3092 3089 3089 3088 3088 3083 3087 3085 3084 3084 3083 3083 3082 3082
3107 3106 3105 3103 3102 3101 3099 3098 3097 3096 3096 3095 3095 3095 3093 3094 3093 3093 3093 3093 3093 3094 3094 3094 3095 3095 3095 3095 3095 3092 3090 3090 3089 3086 3084 3084 3080 3083 3081 3080 3080 3079 3078 3077 3076
3107 3106 3104 3103 3101 3099 3098 3097 3095 3094 3093 3092 3092 3094 3092 3091 3090 3090 3089 3089 3090 3090 3091 3091 3091 3090 3089 3091 3090 3089 3087 3086 3086 3083 3080 3078 3074 3076 3076 3074 3074 3073 3071 3070 3070
3105 3104 3103 3101 3100 3098 3097 3096 3096 3093 3090 3090 3090 3089 3087 3087 3087 3086 3086 3086 3086 3086 3086 3086 3086 3082 3086 3086 3085 3085 3084 3082 3082 3080 3075 3073 3068 3067 3069 3067 3066 3065 3064 3063 3062
3103 3102 3101 3100 3098 3096 3095 3093 3092 3090 3084 3085 3084 3082 3081 3081 3081 3081 3082 3083 3082 3081 3082 3081 3077 3080 3081 3080 3080 3079 3078 3077 3077 3075 3070 3067 3060 3059 3059 3057 3056 3057 3055 3054 3055
3102 3100 3099 3097 3096 3095 3093 3091 3088 3086 3082 3076 3076 3075 3075 3075 3074 3073 3077 3076 3076 3076 3075 3074 3076 3074 3075 3074 3074 3073 3073 3073 3074 3070 3064 3060 3050 3050 3049 3049 3049 3049 3049 3048 3048
3098 3097 3096 3095 3095 3091 3090 3088 3086 3084 3079 3073 3069 3067 3068 3068 3068 3067 3069 3071 3070 3070 3071 3068 3068 3067 3068 3068 3070 3067 3070 3068 3066 3066 3063 3059 3040 3045 3046 3044 3041 3041 3041 3041 3042
3094 3093 3091 3090 3089 3089 3088 3085 3084 3084 3079 3070 3066 3065 3065 3067 3065 3064 3064 3063 3064 3065 3067 3063 3062 3062 3062 3062 3064 3063 3062 3062 3061 3060 3058 3057 3055 3033 3036 3036 3038 3036 3036 3036 3037
3090 3088 3087 3086 3085 3084 3083 3082 3083 3084 3074 3067 3064 3063 3063 3062 3061 3060 3061 3060 3060 3059 3058 3057 3056 3058 3058 3057 3058 3055 3057 3057 3056 3056 3049 3046 3048 3024 3031 3029 3030 3030 3031 3032 3033
3084 3082 3081 3080 3080 3079 3079 3079 3082 3076 3070 3065 3062 3060 3060 3059 3057 3057 3057 3056 3057 3056 3053 3053 3050 3051 3052 3052 3050 3050 3053 3053 3049 3049 3036 3033 3033 3023 3026 3025 3027 3026 3027 3027 3028
3077 3076 3075 3074 3073 3073 3074 3076 3074 3066 3066 3061 3060 3058 3057 3056 3054 3053 3051 3049 3049 3050 3049 3047 3046 3043 3043 3042 3044 3040 3044 3042 3034 3029 3025 3027 3022 3018 3018 3019 3021 3022 3022 3023 3023
3070 3069 3068 3067 3066 3067 3069 3068 3063 3062 3060 3058 3056 3054 3054 3052 3052 3048 3045 3043 3046 3044 3045 3042 3036 3036 3035 3035 3038 3035 3035 3037 3034 3028 3026 3018 3011 3014 3010 3011 3013 3014 3015 3015 3014
3063 3061 3060 3060 3060 3060 3061 3059 3058 3057 3055 3054 3053 3052 3050 3050 3047 3044 3042 3039 3038 3039 3039 3035 3030 3031 3027 3029 3028 3028 3030 3030 3031 3024 3016 3005 3008 3005 3007 3005 3006 3007 3008 3008 3008
3058 3055 3054 3054 3054 3055 3055 3056 3053 3051 3051 3050 3047 3044 3043 3043 3042 3039 3036 3037 3034 3034 3032 3030 3028 3020 3021 3018 3022 3021 3019 3020 3020 3015 3008 3003 2996 3003 3002 3002 3001 3002 3003 3002 3003
3055 3054 3052 3051 3053 3052 3052 3048 3046 3045 3044 3042 3039 3037 3036 3036 3032 3031 3030 3033 3031 3027 3024 3024 3018 3010 3011 3015 3012 3012 3010 3013 3010 3002 3004 2997 2987 3001 3003 2997 2998 2997 2994 2994 2995
3052 3051 3049 3049 3049 3047 3045 3045 3043 3039 3037 3036 3035 3030 3028 3027 3025 3021 3021 3021 3017 3017 3014 3013 3008 3006 2997 3003 3004 2999 3000 3001 3001 2998 2991 2993 2976 2997 2997 2986 2985 2985 2987 2987 2985
3050 3049 3047 3045 3044 3043 3040 3039 3038 3035 3031 3030 3028 3024 3021 3017 3017 3012 3010 3009 3009 3007 3006 3004 2999 2999 2993 2992 2994 2994 2994 2994 2993 2989 2982 2978 2976 2986 2978 2975 2974 2974 2974 2973 2972
3047 3045 3044 3044 3041 3039 3036 3034 3032 3030 3025 3025 3020 3019 3014 3011 3008 3008 3003 3002 3003 3001 3000 3000 2993 2991 2988 2986 2986 2985 2983 2980 2978 2978 2975 2973 2973 2966 2965 2962 2960 2961 2963 2959 2958
3045 3043 3040 3038 3036 3034 3032 3029 3026 3022 3021 3020 3017 3011 3010 3008 3007 3000 2999 2999 2994 2995 2995 2994 2985 2985 2977 2979 2980 2977 2970 2968 2968 2967 2965 2965 2960 2960 2959 2956 2953 2951 2951 2949 2946
3039 3038 3036 3035 3031 3029 3027 3023 3020 3017 3015 3012 3010 3006 3005 3004 2999 2996 2994 2991 2987 2985 2986 2987 2984 2982 2968 2972 2973 2971 2966 2965 2965 2964 2963 2962 2961 2958 2955 2951 2948 2943 2943 2941 2939